VK4VP-5 Buderim QLD AU current weather conditions

sailwx.info

Wind from 014

Air temperature 22.8° C
Dewpoint 20.1° C

Last reported at 2017-Dec-17 21:04 UTC.
Time now 2017-Dec-17 21:38 UTC

Location: S 26°42' E 153°05'.
View on Google Maps.

See reports from other nearby stations

  
Tides and Currents Weather Stations Pressure Air Temp Water Temp Dewpoint Dewpoint Depression Visibility Wind Speed Wind Dir Waves Ship Positions
date/time (UTC)wind fromknots sea level pressurealtimeterstation pressurevisibilityair tempwater tempwave heightnotes
2017-Dec-17 21:04 014 22.8
2017-Dec-17 20:54 014 22.8
2017-Dec-17 20:44 014 22.2
2017-Dec-17 20:34 014 22.2
2017-Dec-17 20:24 014 21.7
2017-Dec-17 20:14 21.7
2017-Dec-17 20:04 004 0 gusting 3 21.1
2017-Dec-17 19:54 003 20.6
2017-Dec-17 19:44 20.6
2017-Dec-17 19:34 005 20.0
2017-Dec-17 19:24 20.0
2017-Dec-17 19:14 004 20.0
2017-Dec-17 19:04 003 19.4
2017-Dec-17 18:54 012 20.0
2017-Dec-17 18:44 20.0
2017-Dec-17 18:34 20.0
2017-Dec-17 18:24 20.0
2017-Dec-17 18:14 20.0
2017-Dec-17 18:04 012 20.6
2017-Dec-17 17:54 011 20.6
2017-Dec-17 17:44 20.6
2017-Dec-17 17:34 20.6
2017-Dec-17 17:24 20.6
2017-Dec-17 17:14 011 21.1
2017-Dec-17 17:04 21.1
2017-Dec-17 16:54 21.1
2017-Dec-17 16:44 21.7
2017-Dec-17 16:34 21.7
2017-Dec-17 16:24 21.7
2017-Dec-17 16:14 21.7
2017-Dec-17 16:04 21.7
2017-Dec-17 15:54 21.7
2017-Dec-17 15:44 011 21.7
2017-Dec-17 15:34 012 21.7
2017-Dec-17 15:24 011 22.2
2017-Dec-17 15:14 22.2
2017-Dec-17 15:04 22.2
2017-Dec-17 14:54 22.2
2017-Dec-17 14:44 22.8
2017-Dec-17 14:34 23.3
2017-Dec-17 14:24 23.3
2017-Dec-17 14:14 23.3
2017-Dec-17 14:04 23.9
2017-Dec-17 13:54 23.9
2017-Dec-17 13:44 011 23.9
2017-Dec-17 13:34 012 23.9
2017-Dec-17 13:24 012 23.9
2017-Dec-17 13:14 23.9
2017-Dec-17 13:04 011 23.9
2017-Dec-17 12:54 23.9
2017-Dec-17 12:44 23.9
2017-Dec-17 12:34 23.9
2017-Dec-17 12:24 011 23.9
2017-Dec-17 12:14 24.4
2017-Dec-17 12:04 012 23.9
2017-Dec-17 11:54 012 23.9
2017-Dec-17 11:44 23.9
2017-Dec-17 11:34 011 24.4
2017-Dec-17 11:24 012 24.4
2017-Dec-17 11:14 24.4
2017-Dec-17 11:04 011 24.4
2017-Dec-17 10:54 011 24.4
2017-Dec-17 10:44 012 24.4
2017-Dec-17 10:34 012 24.4
2017-Dec-17 10:24 011 24.4
2017-Dec-17 10:14 012 24.4
2017-Dec-17 10:04 012 24.4
2017-Dec-17 09:54 011 24.4
2017-Dec-17 09:44 012 24.4
2017-Dec-17 09:34 011 24.4
2017-Dec-17 09:24 012 24.4
2017-Dec-17 09:14 011 24.4
2017-Dec-17 09:04 011 24.4
2017-Dec-17 08:54 012 25.0
2017-Dec-17 08:44 011 25.0
2017-Dec-17 08:34 011 25.0
2017-Dec-17 08:24 011 25.6
2017-Dec-17 08:14 011 25.6
2017-Dec-17 08:04 011 0 gusting 5 25.6
2017-Dec-17 07:54 011 26.1
2017-Dec-17 07:44 011 26.1
2017-Dec-17 07:34 011 26.1
2017-Dec-17 07:24 011 26.1
2017-Dec-17 07:14 069 0 gusting 8 26.1
2017-Dec-17 07:04 073 0 gusting 5 26.1
2017-Dec-17 06:54 072 0 gusting 8 26.1
2017-Dec-17 06:44 072 1 gusting 8 26.1
2017-Dec-17 06:34 073 2 gusting 8 26.1
2017-Dec-17 06:24 074 1 gusting 8 26.1
2017-Dec-17 06:14 075 1 gusting 9 26.1
2017-Dec-17 06:04 076 1 gusting 8 26.7
2017-Dec-17 05:54 084 2 gusting 10 27.2
2017-Dec-17 05:44 091 1 gusting 9 26.7
2017-Dec-17 05:34 091 1 gusting 8 26.7
2017-Dec-17 05:24 093 1 gusting 8 26.7
2017-Dec-17 05:14 094 0 gusting 5 26.7
2017-Dec-17 05:04 094 0 gusting 8 26.7
2017-Dec-17 04:54 096 2 gusting 10 26.7
2017-Dec-17 04:44 098 2 gusting 9 27.2
2017-Dec-17 04:34 101 1 gusting 8 27.2
2017-Dec-17 04:19 113 2 gusting 7 27.2
2017-Dec-17 04:11 114 2 gusting 7 26.7
2017-Dec-17 04:01 114 2 gusting 8 26.7
2017-Dec-17 03:51 114 1 gusting 8 27.2
2017-Dec-17 03:41 125 3 gusting 10 27.2
2017-Dec-17 03:31 117 3 gusting 9 27.2
2017-Dec-17 03:21 110 1 gusting 8 27.8
2017-Dec-17 03:11 109 2 gusting 8 27.2
2017-Dec-17 03:01 111 2 gusting 9 27.2
2017-Dec-17 02:51 116 2 gusting 9 27.2
2017-Dec-17 02:41 119 1 gusting 8 27.2
2017-Dec-17 02:31 119 1 gusting 9 27.8
2017-Dec-17 02:21 123 2 gusting 8 27.8
2017-Dec-17 02:11 125 1 gusting 7 27.8
2017-Dec-17 02:01 125 1 gusting 8 27.2
2017-Dec-17 01:51 125 2 gusting 8 27.2
2017-Dec-17 01:41 127 2 gusting 8 27.2
2017-Dec-17 01:31 131 2 gusting 7 27.2
2017-Dec-17 01:21 133 2 gusting 7 27.2
2017-Dec-17 01:11 137 2 gusting 7 27.2
2017-Dec-17 01:01 137 1 gusting 7 27.8
2017-Dec-17 00:51 138 1 gusting 8 27.8
2017-Dec-17 00:41 142 1 gusting 7 27.8
2017-Dec-17 00:31 141 1 gusting 6 27.8
2017-Dec-17 00:21 141 1 gusting 6 27.2
2017-Dec-17 00:11 143 0 gusting 6 27.2
2017-Dec-17 00:01 145 0 gusting 6 27.8
2017-Dec-16 23:51 147 1 gusting 7 27.2
2017-Dec-16 23:41 148 1 gusting 7 27.2
2017-Dec-16 23:31 149 0 gusting 5 27.8
2017-Dec-16 23:21 149 0 gusting 5 27.8
2017-Dec-16 23:11 149 27.2
2017-Dec-16 23:01 149 0 gusting 5 26.7
2017-Dec-16 22:51 149 0 gusting 6 26.1
2017-Dec-16 22:41 149 25.6
2017-Dec-16 22:31 149 0 gusting 5 25.6
2017-Dec-16 22:21 149 0 gusting 7 25.6
2017-Dec-16 22:11 149 1 gusting 5 25.0
2017-Dec-16 22:01 149 1 gusting 8 25.0
2017-Dec-16 21:51 149 0 gusting 5 25.6
2017-Dec-16 21:41 149 0 gusting 6 25.0
2017-Dec-16 21:31 149 1 gusting 6 24.4
2017-Dec-16 21:21 149 24.4
2017-Dec-16 21:11 149 0 gusting 6 23.9
2017-Dec-16 21:01 149 23.3
2017-Dec-16 20:57 149 23.3
2017-Dec-16 20:51 149 23.3
2017-Dec-16 20:41 149 22.8
2017-Dec-16 20:31 149 22.2
2017-Dec-16 20:21 149 21.7
2017-Dec-16 20:11 21.1
2017-Dec-16 20:01 149 20.6
2017-Dec-16 19:57 20.6
2017-Dec-16 19:51 149 20.0
2017-Dec-16 19:41 142 20.0
2017-Dec-16 19:36 128 19.4
2017-Dec-16 19:31 097 19.4
2017-Dec-16 19:21 096 19.4
2017-Dec-16 19:17 096 19.4
2017-Dec-16 19:11 19.4
2017-Dec-16 19:01 19.4
2017-Dec-16 18:57 19.4
2017-Dec-16 18:51 19.4
2017-Dec-16 18:47 19.4
2017-Dec-16 18:41 19.4
2017-Dec-16 18:31 19.4
2017-Dec-16 18:21 19.4
2017-Dec-16 18:11 19.4
2017-Dec-16 18:01 20.0
2017-Dec-16 17:51 20.0
2017-Dec-16 17:41 20.0
2017-Dec-16 17:37 20.0
2017-Dec-16 17:31 20.0
2017-Dec-16 17:27 20.0
2017-Dec-16 17:21 20.0
2017-Dec-16 17:17 20.0
2017-Dec-16 17:11 20.0
2017-Dec-16 17:01 20.6
2017-Dec-16 16:51 20.6
2017-Dec-16 16:46 20.6
2017-Dec-16 16:41 20.6
2017-Dec-16 16:31 20.6
2017-Dec-16 16:21 21.1
2017-Dec-16 16:11 21.1
2017-Dec-16 16:01 21.1
2017-Dec-16 15:51 21.1
2017-Dec-16 15:41 21.1
2017-Dec-16 15:36 21.1
2017-Dec-16 15:31 21.7
2017-Dec-16 15:21 21.7
2017-Dec-16 15:11 21.7
2017-Dec-16 15:01 21.7
2017-Dec-16 14:57 21.7
2017-Dec-16 14:51 21.7
2017-Dec-16 14:41 22.2
2017-Dec-16 14:37 22.2
2017-Dec-16 14:31 095 22.2
2017-Dec-16 14:27 095 22.2
2017-Dec-16 14:21 22.8
2017-Dec-16 14:11 22.8
2017-Dec-16 14:01 22.8
2017-Dec-16 13:57 23.3
2017-Dec-16 13:51 096 23.3
2017-Dec-16 13:41 096 23.3
2017-Dec-16 13:31 23.3
2017-Dec-16 13:21 23.3
2017-Dec-16 13:11 23.3
2017-Dec-16 13:01 23.3
2017-Dec-16 12:51 23.9
2017-Dec-16 12:41 23.9
2017-Dec-16 12:31 23.9
2017-Dec-16 12:21 095 23.9
2017-Dec-16 12:11 095 23.9
2017-Dec-16 12:01 095 24.4
2017-Dec-16 11:51 095 24.4
2017-Dec-16 11:41 095 23.9
2017-Dec-16 11:37 095 23.9
2017-Dec-16 11:31 095 24.4
2017-Dec-16 11:21 095 24.4
2017-Dec-16 11:11 095 24.4
2017-Dec-16 11:07 095 24.4
2017-Dec-16 11:01 095 24.4
2017-Dec-16 10:51 095 24.4
2017-Dec-16 10:41 24.4
2017-Dec-16 10:31 095 24.4
2017-Dec-16 10:21 095 24.4
2017-Dec-16 10:11 095 24.4
2017-Dec-16 10:01 095 24.4
2017-Dec-16 09:51 095 24.4
2017-Dec-16 09:41 095 24.4
2017-Dec-16 09:31 095 24.4
2017-Dec-16 09:21 095 25.0
2017-Dec-16 09:11 095 25.0
2017-Dec-16 09:01 095 0 gusting 6 25.0
2017-Dec-16 08:51 095 25.0
2017-Dec-16 08:41 087 25.0
2017-Dec-16 08:31 045 25.6
2017-Dec-16 08:21 045 25.6
2017-Dec-16 08:11 044 0 gusting 5 25.6
2017-Dec-16 08:01 045 25.6
2017-Dec-16 07:51 045 0 gusting 8 25.6
2017-Dec-16 07:41 045 0 gusting 6 26.1
2017-Dec-16 07:31 045 26.1
2017-Dec-16 07:21 044 0 gusting 6 26.1
2017-Dec-16 07:11 045 26.7
2017-Dec-16 07:01 043 1 gusting 9 26.7
2017-Dec-16 06:51 042 0 gusting 7 26.7
2017-Dec-16 06:41 042 1 gusting 8 26.7
2017-Dec-16 06:31 042 1 gusting 8 26.7
2017-Dec-16 06:21 040 2 gusting 8 26.7
2017-Dec-16 06:11 040 1 gusting 7 26.7
2017-Dec-16 06:01 041 2 gusting 11 26.7
2017-Dec-16 05:51 052 2 gusting 9 27.2
2017-Dec-16 05:41 051 0 gusting 8 27.8
2017-Dec-16 05:31 051 1 gusting 8 27.2
2017-Dec-16 05:21 046 2 gusting 9 27.2
2017-Dec-16 05:11 045 1 gusting 8 27.8
2017-Dec-16 05:01 043 2 gusting 8 27.2
2017-Dec-16 04:51 041 2 gusting 8 27.8
2017-Dec-16 04:41 041 2 gusting 11 27.2
2017-Dec-16 04:31 045 5 gusting 9 27.2
2017-Dec-16 04:21 046 1 gusting 8 28.3
2017-Dec-16 04:11 048 3 gusting 10 27.8
2017-Dec-16 04:01 050 1 gusting 8 27.8
2017-Dec-16 03:51 050 1 gusting 8 27.8
2017-Dec-16 03:41 050 1 gusting 8 27.2
2017-Dec-16 03:31 050 3 gusting 10 27.2
2017-Dec-16 03:21 050 2 gusting 10 27.2
2017-Dec-16 03:11 053 5 gusting 9 27.8
2017-Dec-16 03:01 055 0 gusting 6 27.8
2017-Dec-16 02:51 056 3 gusting 10 27.8
2017-Dec-16 02:41 060 2 gusting 8 27.8
2017-Dec-16 02:31 058 1 gusting 8 27.8
2017-Dec-16 02:21 061 3 gusting 10 27.2
2017-Dec-16 02:11 069 3 gusting 8 27.2
2017-Dec-16 02:01 065 3 gusting 11 27.2
2017-Dec-16 01:56 062 1 gusting 8 27.8
2017-Dec-16 01:51 062 1 gusting 8 27.8
2017-Dec-16 01:41 064 2 gusting 8 27.8
2017-Dec-16 01:31 064 2 gusting 7 27.8
2017-Dec-16 01:21 061 3 gusting 8 27.2
2017-Dec-16 01:11 087 27.8
2017-Dec-16 01:01 087 23.9
2017-Dec-16 00:51 087 23.9
2017-Dec-16 00:41 087 23.9
2017-Dec-16 00:31 087 23.9
2017-Dec-16 00:21 087 23.9
2017-Dec-16 00:11 087 23.9
2017-Dec-16 00:01 087 23.9
2017-Dec-15 23:51 087 23.9
2017-Dec-15 23:41 087 23.9
2017-Dec-15 23:31 087 23.9
2017-Dec-15 23:21 087 23.9
2017-Dec-15 23:16 087 23.9
2017-Dec-15 23:11 087 23.9
2017-Dec-15 23:01 087 23.9
2017-Dec-15 22:51 087 23.9
2017-Dec-15 22:41 087 23.9
2017-Dec-15 22:36 087 23.9
2017-Dec-15 22:31 087 23.9
2017-Dec-15 22:21 087 23.9
2017-Dec-15 22:11 087 23.9
2017-Dec-15 22:01 087 23.9
2017-Dec-15 21:51 087 23.9
2017-Dec-15 21:41 087 23.9
2017-Dec-15 21:31 087 23.9
2017-Dec-15 21:21 087 23.9
2017-Dec-15 21:11 087 23.9
2017-Dec-15 21:01 087 23.9